Overview Statistics Trail Chart Weather Telemetry Raw packets
 

This is the latest recevied weather packets stored in our database for station/object KL4TQ. If no packets are shown the sender has not sent any weather packets the latest 10 day(s).

<< 75 76 77 78 79 80 81 >>
Time Temp. Humidity Pressure Rain* Wind** Luminosity Snow
1777154168 8.33° C 56% 857 hPa 0 mm - 302 W/m² -
1777153868 8.33° C 56% 857 hPa 0 mm - 313 W/m² -
1777153569 7.78° C 57% 857 hPa 0 mm - 309 W/m² -
1777153268 7.78° C 58% 857 hPa 0 mm - 274 W/m² -
1777152968 7.78° C 59% 857 hPa 0 mm - 297 W/m² -
1777152669 7.78° C 59% 857 hPa 0 mm - 365 W/m² -
1777152368 7.78° C 58% 857 hPa 0 mm - 330 W/m² -
1777152068 8.33° C 58% 857 hPa 0 mm - 489 W/m² -
1777151769 8.33° C 57% 857 hPa 0 mm - 204 W/m² -
1777151468 8.33° C 58% 857 hPa 0 mm - 856 W/m² -
1777151169 7.78° C 58% 857 hPa 0 mm - 211 W/m² -
1777150868 7.78° C 59% 857 hPa 0 mm - 855 W/m² -
1777150568 7.78° C 59% 857 hPa 0 mm - 290 W/m² -
1777150268 7.78° C 60% 857 hPa 0 mm - 550 W/m² -
1777149968 7.78° C 60% 857 hPa 0 mm - 379 W/m² -
1777149668 7.78° C 60% 857 hPa 0 mm - 366 W/m² -
1777149368 7.78° C 62% 857 hPa 0 mm - 337 W/m² -
1777149068 7.78° C 59% 858 hPa 0 mm - 923 W/m² -
1777148768 7.78° C 59% 858 hPa 0 mm - 814 W/m² -
1777148468 7.22° C 63% 857 hPa 0 mm - 477 W/m² -
1777148168 7.22° C 63% 857 hPa 0 mm - 285 W/m² -
1777147868 7.22° C 62% 857 hPa 0 mm - 375 W/m² -
1777147569 7.78° C 63% 857 hPa 0 mm - 295 W/m² -
1777147268 7.78° C 62% 857 hPa 0 mm - 690 W/m² -
1777146968 7.78° C 62% 857 hPa 0 mm - 253 W/m² -

* Rain latest hour (hover to see other rain measurements)
** Current wind speed in m/s (hover to see current wind gust speed)